Weather History for Tucumcari, NM

Change the Weather History Date:

Wednesday, November 21, 2012

  Actual Average Record
Temperature  
Mean Temperature 57 °F -  
Max Temperature 72 °F 59 °F 82 °F (1924)
Min Temperature 42 °F 31 °F 1 °F (1906)
Degree Days  
Heating Degree Days 8    
Growing Degree Days 7 (Base 50)    
Moisture  
Dew Point 31 °F    
Average Humidity 37    
Maximum Humidity 61    
Minimum Humidity 24    
Precipitation  
Precipitation 0.00 in - - ()
Sea Level Pressure  
Sea Level Pressure 30.02 in    
Wind  
Wind Speed 12 mph (SW)    
Max Wind Speed 24 mph    
Max Gust Speed 30 mph    
Visibility 10 miles    
Events      
Averages and records for this station are not official NWS values.
T = Trace of Precipitation, MM = Missing Value Source: NWS Daily Summary

Daily Weather History Graph

Daily Weather History Graph

Search for Another Location

Airport:

Trip Planner

Search our weather history database for the weather conditions in past years. The results will help you decide how hot, cold, wet, or windy it might be!

Date:

Astronomy

Nov. 21, 2012 Rise Set
Actual Time 6:35 AM MST 4:44 PM MST
Civil Twilight 6:08 AM MST 5:12 PM MST
Nautical Twilight 5:37 AM MST 5:43 PM MST
Astronomical Twilight 5:07 AM MST 6:13 PM MST
Moon 12:50 PM MST (11/21) 12:10 AM MST (11/21)
Length of Visible Light 11h 04m
Length of Day
10h 09m
Waxing Gibbous, 62% of the Moon is Illuminated
Nov 21
Waxing Gibbous
Nov 28
Full
Dec 6
Last Quarter
Dec 13
New
Dec 19
First Quarter

Hourly Weather History & Observations

Time (MST) Temp. Windchill Dew Point Humidity Pressure Visibility Wind Dir Wind Speed Gust Speed Precip Events Conditions
12:53 AM 48.0 °F - 17.1 °F 29% 30.11 in 10.0 mi SW 5.8 mph - N/A   Clear
1:53 AM 45.0 °F 40.1 °F 17.1 °F 33% 30.11 in 10.0 mi SW 9.2 mph - N/A   Clear
2:53 AM 46.9 °F - 18.0 °F 32% 30.08 in 10.0 mi West 8.1 mph - N/A   Clear
3:53 AM 48.0 °F - 19.0 °F 32% 30.08 in 10.0 mi SSW 12.7 mph - N/A   Clear
4:53 AM 46.0 °F 41.4 °F 19.0 °F 34% 30.11 in 10.0 mi WSW 9.2 mph - N/A   Clear
5:53 AM 42.1 °F 37.7 °F 18.0 °F 38% 30.13 in 10.0 mi West 6.9 mph - N/A   Clear
6:53 AM 44.1 °F 40.8 °F 19.0 °F 37% 30.14 in 10.0 mi WSW 5.8 mph - N/A   Clear
7:53 AM 51.1 °F - 21.0 °F 31% 30.14 in 10.0 mi SW 8.1 mph - N/A   Clear
8:53 AM 55.9 °F - 23.0 °F 28% 30.12 in 10.0 mi West 8.1 mph - N/A   Clear
9:53 AM 63.0 °F - 25.0 °F 24% 30.11 in 10.0 mi WSW 15.0 mph 18.4 mph N/A   Clear
10:53 AM 66.9 °F - 34.0 °F 30% 30.06 in 10.0 mi SW 24.2 mph 29.9 mph N/A   Clear
11:53 AM 69.1 °F - 36.0 °F 30% 30.02 in 10.0 mi SW 19.6 mph - N/A   Clear
12:53 PM 71.1 °F - 36.0 °F 28% 29.98 in 10.0 mi SW 23.0 mph 27.6 mph N/A   Clear
1:53 PM 72.0 °F - 39.0 °F 30% 29.96 in 10.0 mi SW 20.7 mph 27.6 mph N/A   Clear
2:53 PM 72.0 °F - 39.0 °F 30% 29.93 in 10.0 mi SSW 21.9 mph - N/A   Clear
3:53 PM 72.0 °F - 37.9 °F 29% 29.92 in 10.0 mi SSW 15.0 mph - N/A   Clear
4:53 PM 66.9 °F - 39.0 °F 36% 29.94 in 10.0 mi SSW 15.0 mph - N/A   Clear
5:53 PM 63.0 °F - 39.9 °F 43% 29.97 in 10.0 mi SW 16.1 mph - N/A   Clear
6:53 PM 61.0 °F - 39.9 °F 46% 29.97 in 10.0 mi SW 17.3 mph - N/A   Clear
7:53 PM 59.0 °F - 39.9 °F 49% 29.95 in 10.0 mi SW 16.1 mph - N/A   Clear
8:53 PM 59.0 °F - 39.9 °F 49% 29.92 in 10.0 mi SW 16.1 mph - N/A   Clear
9:53 PM 57.0 °F - 39.9 °F 53% 29.91 in 10.0 mi SW 13.8 mph - N/A   Clear
10:53 PM 54.0 °F - 39.9 °F 59% 29.90 in 10.0 mi WSW 10.4 mph - N/A   Clear
11:53 PM 53.1 °F - 39.9 °F 61% 29.89 in 10.0 mi WSW 10.4 mph - N/A   Clear